Retour au catalogue

COSMOS 397 DEB

ActifLEO
NORAD 5094·DEBRIS·🇷🇺 Russia

Lancé Feb 25, 1971 depuis Baikonur Cosmodrome

Loading…

Prochains Passages

TLE

Source: Space-Track
1  5094U 71015U   26224.89714168  .00006984  00000-0  98442-3 0  9999
2  5094  65.6829  56.1852 0309610 130.3023 232.5580 14.50011016697347

Suivez COSMOS 397 DEB en temps réel avec AllMySat

Download on the App Store